SCP
-0 -0 -0 -0 -0 -0 -0 -0 -0 -0 -0 -0 -0 -0 -0 -0 -0 -0 -0 0 0 -0 -0 -0 -0 -0 -0 0 -0 -0 -0 -0 0 0 0 0 0 0 0 0 0 0 0 0 0
-0 -0 -0 -0 -0 -0 -0 -0 -0 -0 0 0 -0 -0 -0 -0 -0 -0 -0 -0 0 0 -0 -0 -0 -0 0 0 0 -0 0 0 0 0 0 0 0 0 0 0 0 0 0 0 0
-0 -0 -0 -0 -0 -0 -0 -0 -0 -0 -0 -0 -0 -0 -0 -0 0 -0 0 -0 -0 -0 0 0 -0 -0 -0 0 -0 0 0 0 0 0 0 0 0 0 0 0 0 0 0 0 0
-0 -0 -0 -0 -0 -0 -0 -0 -0 -0 -0 -0 -0 -0 -0 -0 -0 -0 -0 -0 -0 -0 -0 -0 0 -0 -0 0 0 0 0 0 0 0 0 0 0 0 0 0 0 0 0 0 0
-0 -0 -0 -0 -0 -0 -0 -0 -0 -0 -0 -0 -0 -0 -0 -0 -0 -0 -0 -0 -0 0 -0 -0 -0 -0 0 0 0 0 0 0 0 0 0 0 0 0 0 0 0 0 0 0 0
-0 -0 -0 -0 -0 -0 -0 -0 -0 -0 -0 -0 -0 -0 -0 -0 -0 -0 -0 -0 -0 0 -0 -0 -0 -0 0 0 -0 0 0 0 0 0 0 0 0 0 0 0 0 0 0 0 0
-0 -0 -0 -0 -0 -0 -0 -0 -0 -0 -0 -0 -0 -0 -0 -0 -0 -0 -0 -0 -0 0 -0 -0 -0 -0 -0 0 0 0 -0 0 0 0 -0 0 0 0 0 0 0 0 0 0 0
-0 -0 -0 -0 -0 -0 -0 -0 -0 -0 -0 -0 -0 -0 0 0 -0 -0 -0 0 -0 -0 0 -0 -0 0 -0 0 0 -0 -0 -0 0 0 0 0 0 -0 0 0 0 0 0 0 0
-0 -0 -0 -0 -0 -0 -0 -0 0 0 0 -0 -0 0 0 0 -0 -0 -0 -0 0 0 0 0 0 0 -0 0 0 0 0 0 0 0 0 0 0 0 0 0 0 0 0 0 0
-0 -0 -0 -0 -0 -0 0 -0 -0 -0 -0 -0 -0 -0 0 0 0 -0 -0 -0 -0 -0 0 0 0 0 0 0 0 0 0 0 0 0 0 0 0 0 0 0 0 0 0 0 0
-0 -0 0 0 0 -0 -0 -0 0 0 0 0 0 0 0 0 -0 0 0 -0 -0 0 -0 0 -0 0 0 0 0 0 0 0 0 0 0 0 0 0 0 0 0 0 0 0 0
-0 0 0 -0 -0 -0 -0 -0 0 0 0 0 0 0 0 0 0 0 -0 -0 -0 -0 0 0 0 0 0 0 0 0 0 0 0 0 0 0 0 0 0 0 0 0 0 0 0
-0 0 -0 -0 -0 -0 0 0 -0 -0 0 0 0 0 0 0 0 0 0 0 -0 -0 0 0 0 0 0 0 0 0 0 0 0 0 0 0 0 0 0 0 0 0 0 0 0
-0 -0 -0 -0 -0 0 0 0 -0 -0 0 0 0 0 0 0 0 0 0 0 -0 0 0 0 0 0 0 0 0 0 0 0 0 0 0 0 0 0 0 0 0 0 0 0 0
-0 -0 -0 -0 0 0 0 -0 -0 -0 0 0 0 0 0 0 0 0 0 0 0 0 0 0 0 0 0 0 0 0 0 0 0 0 0 0 0 0 0 0 0 0 0 0 0
-0 -0 -0 -0 -0 0 -0 -0 -0 0 0 0 0 0 0 0 0 0 0 0 0 0 0 0 0 0 0 0 0 0 0 0 0 0 0 0 0 0 0 0 0 0 0 0 0
-0 0 -0 -0 -0 0 -0 -0 0 0 0 0 0 0 0 0 0 0 0 0 0 0 0 0 0 0 0 0 0 0 0 0 0 0 0 0 0 0 0 0 0 0 0 0 0
-0 0 -0 -0 -0 -0 -0 -0 0 0 0 0 0 0 0 0 0 0 0 0 0 0 0 0 0 0 0 0 0 0 0 0 0 0 0 0 0 0 0 0 0 0 0 0 0
0 0 0 -0 -0 -0 -0 -0 0 0 0 0 0 0 0 0 0 0 0 0 0 0 0 0 0 0 0 0 0 0 0 0 0 0 0 0 0 0 0 0 0 0 0 0 0
-0 -0 0 -0 -0 -0 -0 0 0 0 0 0 0 0 0 0 0 0 0 0 0 0 0 0 0 0 0 0 0 0 0 0 0 0 0 0 0 0 0 0 0 0 0 0 0
-0 -0 0 0 -0 -0 0 0 0 0 0 0 0 0 0 0 0 0 0 0 0 0 0 0 0 0 0 0 0 0 0 0 0 0 0 0 0 0 0 0 0 0 0 0 0
-0 0 0 0 -0 -0 0 0 0 0 0 0 0 0 0 0 0 0 0 0 0 0 0 0 0 0 0 -0 0 0 0 0 0 0 0 0 0 0 0 0 0 0 0 0 0
0 0 0 -0 0 0 0 0 0 0 0 0 0 0 0 0 0 0 0 0 0 0 0 0 0 0 0 0 0 0 0 0 0 0 0 0 0 0 0 0 0 0 0 0 0
-0 0 0 0 0 0 0 0 0 0 0 0 0 0 0 0 0 0 0 0 0 0 0 0 0 0 0 0 0 0 0 0 0 0 0 0 0 0 0 0 0 0 0 0 0
0 0 0 0 0 0 0 0 0 0 0 0 0 0 0 0 0 0 0 0 0 0 0 0 0 0 0 0 0 0 0 0 0 0 0 0 0 0 0 0 0 0 0 0 0
0 0 0 0 0 0 0 0 0 0 0 0 0 0 0 0 0 -0 0 0 0 0 0 0 0 0 0 0 0 0 0 0 0 0 0 0 0 0 0 0 0 0 0 0 0
0 0 0 0 0 0 0 0 0 0 0 0 0 0 0 0 0 0 0 0 0 0 0 0 0 0 0 0 0 0 0 0 0 0 0 0 0 0 0 0 0 0 0 0 -0
Wind_Speed_500mb
14 14 13 11 10 14 25 28 27 21 19 28 33 33 32 29 24 19 17 14 12 10 10 4 4 6 8 8 11 17 16 20 10 5 17 13 13 10 7 2 8 7 13 9 6
13 13 12 11 13 24 32 31 25 22 22 31 32 32 23 16 18 22 16 14 12 8 10 9 6 10 7 6 6 24 18 19 15 15 6 2 14 6 13 12 15 15 12 8 6
13 12 11 14 21 31 35 29 24 23 22 28 27 25 18 9 5 22 18 21 22 17 9 2 2 3 4 6 4 9 12 14 8 6 10 14 16 5 20 16 6 6 4 4 4
14 14 15 19 27 33 32 26 24 22 19 21 20 21 6 8 3 5 19 26 30 24 4 3 8 6 5 4 1 12 6 1 10 5 17 17 7 20 15 4 14 5 7 11 7
14 15 18 22 27 31 26 23 20 19 17 11 13 17 9 10 20 10 21 23 22 17 13 7 6 6 6 4 1 5 5 8 8 13 8 7 18 17 16 13 8 15 17 17 14
13 15 19 23 26 24 22 20 15 14 14 15 19 10 10 18 10 8 11 13 16 17 17 14 10 10 4 4 12 6 7 7 6 2 10 16 18 13 24 16 17 21 25 23 23
11 13 18 20 21 20 18 14 10 9 8 8 5 8 7 14 13 5 8 8 12 16 16 12 8 11 7 9 1 6 21 22 20 4 21 8 27 37 28 7 20 30 30 32 30
6 11 15 16 15 14 13 10 6 3 4 6 16 4 9 13 8 2 1 3 7 10 12 11 7 4 15 2 12 14 13 16 29 12 5 14 27 25 18 18 30 32 35 39 39
3 9 13 14 12 9 8 5 5 6 3 5 7 9 15 11 5 4 2 5 8 8 9 9 8 13 20 24 22 21 13 14 14 15 6 21 30 28 28 27 29 34 40 41 41
2 11 13 12 9 6 3 5 7 9 4 4 11 12 14 13 9 2 3 7 12 16 20 13 14 20 22 13 21 25 25 23 23 7 16 27 33 33 34 36 40 41 42 33 32
5 10 16 15 9 3 4 2 7 9 20 14 17 4 16 10 6 4 5 13 12 15 17 11 19 17 21 15 19 21 26 30 29 19 23 30 31 35 42 41 42 40 22 18 19
6 7 17 17 10 5 7 12 6 6 10 8 9 6 8 8 10 4 8 12 13 20 15 23 25 16 8 20 21 25 32 33 26 20 22 35 43 41 40 36 26 19 23 20 21
5 7 16 17 11 10 5 1 4 5 14 12 16 17 12 12 2 5 13 17 21 23 19 23 29 11 18 23 26 29 30 31 31 31 36 45 45 35 13 8 18 20 19 19 21
9 10 19 19 8 8 2 8 6 7 11 25 24 11 11 5 14 4 9 15 22 24 16 24 13 11 22 28 28 26 16 23 32 31 31 34 38 39 29 23 19 24 29 25 24
13 15 23 13 6 4 2 11 3 3 10 24 21 7 9 14 8 12 7 14 23 27 20 27 13 23 26 19 16 27 23 30 38 38 38 39 24 27 13 24 21 26 25 16 21
19 18 19 4 3 3 8 9 1 14 4 13 11 13 22 14 6 11 7 10 20 21 22 25 14 9 22 15 13 22 28 35 39 33 24 37 16 21 23 24 20 18 20 23 29
22 18 10 6 4 11 8 6 13 14 2 11 6 7 6 7 10 6 16 15 13 15 21 32 28 6 11 24 21 24 28 19 14 18 22 22 14 28 32 25 22 19 34 28 28
8 6 9 11 11 11 4 15 13 13 4 8 6 10 16 10 7 10 18 15 17 17 22 15 19 10 11 17 24 31 23 14 27 27 36 45 43 31 9 15 12 23 25 28 34
6 6 4 16 12 6 17 17 13 11 10 9 15 17 14 11 7 13 17 9 10 16 12 18 15 25 24 27 22 13 16 16 23 33 34 31 41 29 25 9 19 29 20 25 17
4 8 5 15 16 4 17 5 4 6 9 8 18 2 20 14 10 17 14 14 11 1 8 15 29 26 13 17 29 28 20 18 11 12 29 31 48 38 18 28 20 26 35 32 35
1 13 9 16 11 20 12 10 7 8 10 8 14 14 18 14 14 17 8 5 5 13 13 23 17 25 32 35 32 14 25 30 30 23 27 38 25 42 51 48 33 43 32 29 45
4 9 17 13 20 6 8 9 5 6 5 5 11 12 14 14 16 17 13 8 13 20 23 23 13 27 40 45 33 18 25 30 20 35 34 34 45 42 46 46 56 52 53 38 25
12 6 15 11 8 4 5 5 3 5 5 6 6 4 10 15 9 14 12 5 11 18 13 18 9 19 23 7 11 19 23 31 37 36 50 34 36 41 55 49 48 23 31 29 35
12 5 7 13 10 11 3 3 4 5 1 6 9 9 12 16 13 13 21 13 8 17 6 10 22 29 29 39 40 42 45 44 46 23 41 44 52 49 34 33 48 55 42 43 53
12 8 8 6 11 9 10 2 6 1 3 6 8 4 9 10 21 26 15 23 29 9 10 11 27 31 38 44 44 48 53 49 44 41 35 34 44 47 43 34 51 15 43 50 58
14 11 6 3 5 12 7 6 10 5 7 2 10 9 12 20 24 33 30 24 17 13 16 14 27 32 44 44 43 45 51 39 27 29 38 42 42 36 60 62 59 60 62 67 75
13 12 10 7 5 10 7 9 8 7 5 11 13 16 20 17 23 35 38 36 35 30 29 30 28 29 37 38 43 37 18 29 29 26 33 34 46 47 42 44 56 65 70 77 82
Wind_Direction_500mb
59 49 44 52 68 107 127 126 116 99 97 120 123 118 110 98 80 52 50 41 49 60 77 131 135 178 180 158 203 222 237 228 139 267 106 142 251 123 262 142 54 61 37 53 71
50 41 43 67 94 123 129 124 111 97 112 130 129 126 124 117 83 58 47 51 47 89 2 235 183 211 175 195 230 252 266 71 37 15 347 326 280 37 253 184 157 129 101 97 73
43 47 65 93 114 128 129 121 106 96 121 142 142 135 130 85 89 51 67 60 50 51 350 179 191 294 189 35 305 335 24 89 141 12 292 307 270 237 268 249 178 35 44 57 56
41 60 88 105 124 132 130 120 108 99 110 159 165 163 72 301 80 55 72 50 38 26 11 203 243 238 324 79 330 136 49 269 121 189 260 253 298 264 262 11 88 243 271 278 295
51 76 96 114 128 136 133 125 113 101 93 123 186 193 251 115 86 95 40 21 34 35 30 20 333 299 332 102 120 353 134 215 188 220 262 266 240 287 238 209 228 247 256 262 278
67 89 106 122 134 140 138 133 118 108 94 104 123 137 239 99 110 91 63 46 44 33 33 33 21 358 37 14 299 61 275 200 234 52 231 264 254 218 262 204 239 259 265 270 275
81 103 119 129 140 147 150 145 129 127 120 129 144 125 28 120 147 120 64 52 41 34 35 29 356 301 281 191 295 227 249 194 215 265 287 273 265 247 249 186 265 275 263 264 268
110 128 134 136 143 154 166 171 167 140 154 153 146 16 108 142 165 129 33 7 20 17 16 4 350 0 324 286 204 262 247 263 142 157 201 251 285 297 165 220 261 263 270 272 271
188 164 158 149 142 148 160 182 243 248 230 168 178 271 137 163 162 169 328 318 318 314 315 332 317 321 225 242 228 186 326 317 297 179 248 263 287 296 279 258 261 264 267 267 267
297 196 182 169 155 148 183 259 310 234 200 152 247 237 167 169 153 199 303 310 305 303 271 265 263 255 224 345 338 333 311 309 296 290 293 293 285 288 282 280 271 265 269 272 265
297 202 194 185 182 209 212 156 199 189 205 304 152 13 124 153 177 191 321 312 281 260 282 341 293 264 13 327 313 301 291 290 291 290 300 283 286 285 281 280 275 274 281 260 245
309 207 188 186 180 127 98 265 338 341 204 215 202 193 155 169 194 161 322 283 298 297 314 262 246 24 327 302 290 287 284 281 290 297 301 295 290 286 272 259 267 291 268 250 220
10 182 175 164 149 101 107 95 320 266 246 163 167 163 162 207 258 71 330 325 286 299 293 299 291 335 289 285 283 276 292 302 310 316 287 271 273 274 289 237 255 266 257 275 249
54 141 155 143 138 173 121 348 312 235 249 147 190 159 186 222 195 332 332 322 295 299 317 287 312 300 286 279 287 291 348 307 294 295 291 319 292 285 271 232 226 244 245 241 237
65 126 146 140 88 271 303 333 235 250 263 144 133 110 185 236 15 148 314 313 285 314 293 279 307 314 301 315 344 296 329 295 286 278 281 277 264 279 200 247 246 258 266 276 242
68 116 137 69 34 294 313 299 234 234 232 135 143 205 212 177 158 318 276 281 282 286 266 269 288 257 306 330 272 300 282 287 276 259 266 279 303 287 288 337 327 302 273 245 239
75 89 120 78 329 317 300 196 232 255 95 136 200 219 290 293 275 289 312 293 328 321 326 323 275 112 276 286 236 304 304 315 294 292 254 281 267 269 277 282 286 315 289 262 248
84 58 33 1 324 315 213 231 260 41 25 64 271 256 256 30 225 283 290 294 143 320 313 324 310 149 92 297 313 300 290 273 287 296 301 308 285 284 187 230 297 265 266 263 266
240 344 338 328 337 306 250 234 12 27 22 316 285 251 217 194 246 299 297 334 357 351 322 317 276 340 295 303 304 278 262 341 307 295 279 280 279 294 341 77 333 324 309 294 313
203 265 324 332 328 264 244 354 60 35 317 272 284 20 305 334 318 321 317 88 334 165 347 303 306 293 294 309 265 240 299 300 269 287 282 292 303 284 18 352 312 327 10 339 332
188 250 349 322 296 244 283 60 111 84 341 311 321 292 296 306 315 308 297 334 94 331 305 286 280 279 302 275 291 270 236 238 256 277 288 296 281 326 324 325 341 322 329 312 312
296 270 354 335 266 311 32 13 347 350 345 309 294 307 307 325 295 295 293 351 35 331 308 311 298 289 297 290 276 291 289 286 277 283 275 281 282 312 308 319 323 326 322 321 323
332 344 347 328 302 77 119 127 355 312 30 323 299 324 343 302 308 284 295 12 298 312 348 352 289 310 310 242 163 242 294 294 291 283 281 285 285 298 305 317 304 287 314 320 317
313 282 76 49 51 325 311 107 183 98 215 291 304 270 279 272 259 267 291 306 278 274 251 300 264 256 272 285 299 297 301 294 280 286 284 283 297 303 321 333 322 330 325 319 318
357 63 337 349 70 357 314 338 296 293 255 262 222 260 332 296 313 277 303 310 300 269 267 234 278 290 293 298 297 287 282 290 296 300 307 306 303 318 337 330 323 336 318 319 315
357 338 313 101 298 290 143 122 313 31 285 207 281 338 289 289 287 294 304 301 296 305 261 275 290 293 291 292 303 305 302 330 328 300 324 322 313 332 322 329 334 333 325 315 312
6 329 300 121 197 274 60 6 8 323 167 291 318 308 292 318 316 293 285 282 277 283 285 285 281 295 302 299 305 296 332 312 329 336 330 315 309 326 326 327 320 314 307 304 307
Wind_Speed_850mb
14 14 13 11 10 14 25 28 27 21 19 28 33 33 32 29 24 19 17 14 12 10 10 4 4 6 8 8 11 17 16 20 10 5 17 13 13 10 7 2 8 7 13 9 6
13 13 12 11 13 24 32 31 25 22 22 31 32 32 23 16 18 22 16 14 12 8 10 9 6 10 7 6 6 24 18 19 15 15 6 2 14 6 13 12 15 15 12 8 6
13 12 11 14 21 31 35 29 24 23 22 28 27 25 18 9 5 22 18 21 22 17 9 2 2 3 4 6 4 9 12 14 8 6 10 14 16 5 20 16 6 6 4 4 4
14 14 15 19 27 33 32 26 24 22 19 21 20 21 6 8 3 5 19 26 30 24 4 3 8 6 5 4 1 12 6 1 10 5 17 17 7 20 15 4 14 5 7 11 7
14 15 18 22 27 31 26 23 20 19 17 11 13 17 9 10 20 10 21 23 22 17 13 7 6 6 6 4 1 5 5 8 8 13 8 7 18 17 16 13 8 15 17 17 14
13 15 19 23 26 24 22 20 15 14 14 15 19 10 10 18 10 8 11 13 16 17 17 14 10 10 4 4 12 6 7 7 6 2 10 16 18 13 24 16 17 21 25 23 23
11 13 18 20 21 20 18 14 10 9 8 8 5 8 7 14 13 5 8 8 12 16 16 12 8 11 7 9 1 6 21 22 20 4 21 8 27 37 28 7 20 30 30 32 30
6 11 15 16 15 14 13 10 6 3 4 6 16 4 9 13 8 2 1 3 7 10 12 11 7 4 15 2 12 14 13 16 29 12 5 14 27 25 18 18 30 32 35 39 39
3 9 13 14 12 9 8 5 5 6 3 5 7 9 15 11 5 4 2 5 8 8 9 9 8 13 20 24 22 21 13 14 14 15 6 21 30 28 28 27 29 34 40 41 41
2 11 13 12 9 6 3 5 7 9 4 4 11 12 14 13 9 2 3 7 12 16 20 13 14 20 22 13 21 25 25 23 23 7 16 27 33 33 34 36 40 41 42 33 32
5 10 16 15 9 3 4 2 7 9 20 14 17 4 16 10 6 4 5 13 12 15 17 11 19 17 21 15 19 21 26 30 29 19 23 30 31 35 42 41 42 40 22 18 19
6 7 17 17 10 5 7 12 6 6 10 8 9 6 8 8 10 4 8 12 13 20 15 23 25 16 8 20 21 25 32 33 26 20 22 35 43 41 40 36 26 19 23 20 21
5 7 16 17 11 10 5 1 4 5 14 12 16 17 12 12 2 5 13 17 21 23 19 23 29 11 18 23 26 29 30 31 31 31 36 45 45 35 13 8 18 20 19 19 21
9 10 19 19 8 8 2 8 6 7 11 25 24 11 11 5 14 4 9 15 22 24 16 24 13 11 22 28 28 26 16 23 32 31 31 34 38 39 29 23 19 24 29 25 24
13 15 23 13 6 4 2 11 3 3 10 24 21 7 9 14 8 12 7 14 23 27 20 27 13 23 26 19 16 27 23 30 38 38 38 39 24 27 13 24 21 26 25 16 21
19 18 19 4 3 3 8 9 1 14 4 13 11 13 22 14 6 11 7 10 20 21 22 25 14 9 22 15 13 22 28 35 39 33 24 37 16 21 23 24 20 18 20 23 29
22 18 10 6 4 11 8 6 13 14 2 11 6 7 6 7 10 6 16 15 13 15 21 32 28 6 11 24 21 24 28 19 14 18 22 22 14 28 32 25 22 19 34 28 28
8 6 9 11 11 11 4 15 13 13 4 8 6 10 16 10 7 10 18 15 17 17 22 15 19 10 11 17 24 31 23 14 27 27 36 45 43 31 9 15 12 23 25 28 34
6 6 4 16 12 6 17 17 13 11 10 9 15 17 14 11 7 13 17 9 10 16 12 18 15 25 24 27 22 13 16 16 23 33 34 31 41 29 25 9 19 29 20 25 17
4 8 5 15 16 4 17 5 4 6 9 8 18 2 20 14 10 17 14 14 11 1 8 15 29 26 13 17 29 28 20 18 11 12 29 31 48 38 18 28 20 26 35 32 35
1 13 9 16 11 20 12 10 7 8 10 8 14 14 18 14 14 17 8 5 5 13 13 23 17 25 32 35 32 14 25 30 30 23 27 38 25 42 51 48 33 43 32 29 45
4 9 17 13 20 6 8 9 5 6 5 5 11 12 14 14 16 17 13 8 13 20 23 23 13 27 40 45 33 18 25 30 20 35 34 34 45 42 46 46 56 52 53 38 25
12 6 15 11 8 4 5 5 3 5 5 6 6 4 10 15 9 14 12 5 11 18 13 18 9 19 23 7 11 19 23 31 37 36 50 34 36 41 55 49 48 23 31 29 35
12 5 7 13 10 11 3 3 4 5 1 6 9 9 12 16 13 13 21 13 8 17 6 10 22 29 29 39 40 42 45 44 46 23 41 44 52 49 34 33 48 55 42 43 53
12 8 8 6 11 9 10 2 6 1 3 6 8 4 9 10 21 26 15 23 29 9 10 11 27 31 38 44 44 48 53 49 44 41 35 34 44 47 43 34 51 15 43 50 58
14 11 6 3 5 12 7 6 10 5 7 2 10 9 12 20 24 33 30 24 17 13 16 14 27 32 44 44 43 45 51 39 27 29 38 42 42 36 60 62 59 60 62 67 75
13 12 10 7 5 10 7 9 8 7 5 11 13 16 20 17 23 35 38 36 35 30 29 30 28 29 37 38 43 37 18 29 29 26 33 34 46 47 42 44 56 65 70 77 82
Wind_Direction_850mb
59 49 44 52 68 107 127 126 116 99 97 120 123 118 110 98 80 52 50 41 49 60 77 131 135 178 180 158 203 222 237 228 139 267 106 142 251 123 262 142 54 61 37 53 71
50 41 43 67 94 123 129 124 111 97 112 130 129 126 124 117 83 58 47 51 47 89 2 235 183 211 175 195 230 252 266 71 37 15 347 326 280 37 253 184 157 129 101 97 73
43 47 65 93 114 128 129 121 106 96 121 142 142 135 130 85 89 51 67 60 50 51 350 179 191 294 189 35 305 335 24 89 141 12 292 307 270 237 268 249 178 35 44 57 56
41 60 88 105 124 132 130 120 108 99 110 159 165 163 72 301 80 55 72 50 38 26 11 203 243 238 324 79 330 136 49 269 121 189 260 253 298 264 262 11 88 243 271 278 295
51 76 96 114 128 136 133 125 113 101 93 123 186 193 251 115 86 95 40 21 34 35 30 20 333 299 332 102 120 353 134 215 188 220 262 266 240 287 238 209 228 247 256 262 278
67 89 106 122 134 140 138 133 118 108 94 104 123 137 239 99 110 91 63 46 44 33 33 33 21 358 37 14 299 61 275 200 234 52 231 264 254 218 262 204 239 259 265 270 275
81 103 119 129 140 147 150 145 129 127 120 129 144 125 28 120 147 120 64 52 41 34 35 29 356 301 281 191 295 227 249 194 215 265 287 273 265 247 249 186 265 275 263 264 268
110 128 134 136 143 154 166 171 167 140 154 153 146 16 108 142 165 129 33 7 20 17 16 4 350 0 324 286 204 262 247 263 142 157 201 251 285 297 165 220 261 263 270 272 271
188 164 158 149 142 148 160 182 243 248 230 168 178 271 137 163 162 169 328 318 318 314 315 332 317 321 225 242 228 186 326 317 297 179 248 263 287 296 279 258 261 264 267 267 267
297 196 182 169 155 148 183 259 310 234 200 152 247 237 167 169 153 199 303 310 305 303 271 265 263 255 224 345 338 333 311 309 296 290 293 293 285 288 282 280 271 265 269 272 265
297 202 194 185 182 209 212 156 199 189 205 304 152 13 124 153 177 191 321 312 281 260 282 341 293 264 13 327 313 301 291 290 291 290 300 283 286 285 281 280 275 274 281 260 245
309 207 188 186 180 127 98 265 338 341 204 215 202 193 155 169 194 161 322 283 298 297 314 262 246 24 327 302 290 287 284 281 290 297 301 295 290 286 272 259 267 291 268 250 220
10 182 175 164 149 101 107 95 320 266 246 163 167 163 162 207 258 71 330 325 286 299 293 299 291 335 289 285 283 276 292 302 310 316 287 271 273 274 289 237 255 266 257 275 249
54 141 155 143 138 173 121 348 312 235 249 147 190 159 186 222 195 332 332 322 295 299 317 287 312 300 286 279 287 291 348 307 294 295 291 319 292 285 271 232 226 244 245 241 237
65 126 146 140 88 271 303 333 235 250 263 144 133 110 185 236 15 148 314 313 285 314 293 279 307 314 301 315 344 296 329 295 286 278 281 277 264 279 200 247 246 258 266 276 242
68 116 137 69 34 294 313 299 234 234 232 135 143 205 212 177 158 318 276 281 282 286 266 269 288 257 306 330 272 300 282 287 276 259 266 279 303 287 288 337 327 302 273 245 239
75 89 120 78 329 317 300 196 232 255 95 136 200 219 290 293 275 289 312 293 328 321 326 323 275 112 276 286 236 304 304 315 294 292 254 281 267 269 277 282 286 315 289 262 248
84 58 33 1 324 315 213 231 260 41 25 64 271 256 256 30 225 283 290 294 143 320 313 324 310 149 92 297 313 300 290 273 287 296 301 308 285 284 187 230 297 265 266 263 266
240 344 338 328 337 306 250 234 12 27 22 316 285 251 217 194 246 299 297 334 357 351 322 317 276 340 295 303 304 278 262 341 307 295 279 280 279 294 341 77 333 324 309 294 313
203 265 324 332 328 264 244 354 60 35 317 272 284 20 305 334 318 321 317 88 334 165 347 303 306 293 294 309 265 240 299 300 269 287 282 292 303 284 18 352 312 327 10 339 332
188 250 349 322 296 244 283 60 111 84 341 311 321 292 296 306 315 308 297 334 94 331 305 286 280 279 302 275 291 270 236 238 256 277 288 296 281 326 324 325 341 322 329 312 312
296 270 354 335 266 311 32 13 347 350 345 309 294 307 307 325 295 295 293 351 35 331 308 311 298 289 297 290 276 291 289 286 277 283 275 281 282 312 308 319 323 326 322 321 323
332 344 347 328 302 77 119 127 355 312 30 323 299 324 343 302 308 284 295 12 298 312 348 352 289 310 310 242 163 242 294 294 291 283 281 285 285 298 305 317 304 287 314 320 317
313 282 76 49 51 325 311 107 183 98 215 291 304 270 279 272 259 267 291 306 278 274 251 300 264 256 272 285 299 297 301 294 280 286 284 283 297 303 321 333 322 330 325 319 318
357 63 337 349 70 357 314 338 296 293 255 262 222 260 332 296 313 277 303 310 300 269 267 234 278 290 293 298 297 287 282 290 296 300 307 306 303 318 337 330 323 336 318 319 315
357 338 313 101 298 290 143 122 313 31 285 207 281 338 289 289 287 294 304 301 296 305 261 275 290 293 291 292 303 305 302 330 328 300 324 322 313 332 322 329 334 333 325 315 312
6 329 300 121 197 274 60 6 8 323 167 291 318 308 292 318 316 293 285 282 277 283 285 285 281 295 302 299 305 296 332 312 329 336 330 315 309 326 326 327 320 314 307 304 307